This is the latest recevied weather packets stored in our database for station/object W1GK. If no packets are shown the sender has not sent any weather packets the latest 10 day(s).
| Time | Temp. | Humidity | Pressure | Rain* | Wind** | Luminosity | Snow |
|---|---|---|---|---|---|---|---|
| 1787780996 | 43.33° C | 11% | 1013.6 hPa | 0 mm | - | 726 W/m² | - |
| 1787780396 | 43.89° C | 11% | 1013.8 hPa | 0 mm | - | 745 W/m² | - |
| 1787779796 | 42.78° C | 12% | 1013.9 hPa | 0 mm | - | 548 W/m² | - |
| 1787779195 | 43.33° C | 12% | 1014.1 hPa | 0 mm | - | 197 W/m² | - |
| 1787778597 | 42.22° C | 13% | 1014.2 hPa | 0 mm | - | 54 W/m² | - |
| 1787777996 | 43.89° C | 12% | 1014.4 hPa | 0 mm | - | 163 W/m² | - |
| 1787777395 | 44.44° C | 12% | 1014.5 hPa | 0 mm | - | 580 W/m² | - |
| 1787776798 | 43.89° C | 12% | 1014.6 hPa | 0 mm | - | 798 W/m² | - |
| 1787776196 | 43.33° C | 13% | 1014.8 hPa | 0 mm | - | 807 W/m² | - |
| 1787775596 | 42.78° C | 13% | 1014.9 hPa | 0 mm | - | 816 W/m² | - |
| 1787774996 | 42.22° C | 13% | 1015.1 hPa | 0 mm | - | 821 W/m² | - |
| 1787774396 | 41.67° C | 13% | 1015.2 hPa | 0 mm | - | 824 W/m² | - |
| 1787773797 | 41.67° C | 13% | 1015.4 hPa | 0 mm | - | 828 W/m² | - |
| 1787773196 | 41.11° C | 14% | 1015.5 hPa | 0 mm | - | 830 W/m² | - |
| 1787772596 | 41.11° C | 14% | 1015.7 hPa | 0 mm | - | 835 W/m² | - |
| 1787771997 | 40.56° C | 14% | 1015.8 hPa | 0 mm | - | 833 W/m² | - |
| 1787771396 | 40° C | 14% | 1015.9 hPa | 0 mm | - | 826 W/m² | - |
| 1787770796 | 40.56° C | 14% | 1016 hPa | 0 mm | - | 823 W/m² | - |
| 1787770197 | 40.56° C | 14% | 1016.1 hPa | 0 mm | - | 814 W/m² | - |
| 1787769595 | 39.44° C | 14% | 1016.3 hPa | 0 mm | - | 802 W/m² | - |
| 1787768996 | 39.44° C | 15% | 1016.4 hPa | 0 mm | - | 789 W/m² | - |
| 1787768396 | 38.89° C | 15% | 1016.5 hPa | 0 mm | - | 780 W/m² | - |
| 1787767795 | 38.89° C | 15% | 1016.6 hPa | 0 mm | - | 766 W/m² | - |
| 1787767196 | 38.89° C | 15% | 1016.6 hPa | 0 mm | - | 751 W/m² | - |
| 1787766596 | 38.33° C | 16% | 1016.7 hPa | 0 mm | - | 737 W/m² | - |
* Rain latest hour (hover to see other rain measurements)
** Current wind speed in m/s (hover to see current wind gust speed)